Date String (YYYY-MM-DD hh:mm:ss) UTC,Instrument flags,Ambient pressure (hPa),Sample flow (lpm),Bypass flow (lpm),Sample temperature (°C),Ambient temperature (°C),ASC tube jacket temperature (°C),LED temperature (°C),Box temperature (°C),Sample RH (%),Span deviation,Mass concentration (μg/m³),Mass concentration (μg/m³),Mass concentration (μg/m³)
DateTimeUTC,F1_M11,P_M11,Q1_M11,Q2_M11,T1_M11,T2_M11,T3_M11,T4_M11,T5_M11,U1_M11,ZSPAN_M11,X0_M11,X2_M11,X1_M11
2022-12-19 03:00:00,,0820.4,4.96,0.00,22.1,20.4,00.0,31.1,23.9,06.7,0000.5,0014.18,0006.30,0005.21
2022-12-19 03:01:00,,0820.4,4.99,0.00,22.1,20.3,00.0,31.1,23.8,06.7,0002.5,0014.81,0006.40,0005.25
2022-12-19 03:02:00,,0820.4,5.02,0.00,22.1,20.4,00.0,31.0,23.8,06.7,0002.2,0015.91,0006.56,0005.29
2022-12-19 03:03:00,,0820.5,5.03,0.00,22.1,20.7,00.0,31.0,23.9,06.7,0001.6,0016.63,0006.65,0005.33
2022-12-19 03:04:00,,0820.5,4.96,0.00,22.2,21.5,00.0,30.9,24.1,06.7,0001.6,0016.92,0006.77,0005.39
2022-12-19 03:05:00,,0820.5,5.03,0.00,22.2,21.8,00.0,31.0,24.2,06.7,0001.9,0018.25,0006.90,0005.45
2022-12-19 03:06:00,,0820.5,4.99,0.00,22.2,21.5,00.0,31.0,24.2,06.7,0001.5,0018.43,0006.95,0005.49
2022-12-19 03:07:00,,0820.5,4.99,0.00,22.2,21.3,00.0,31.0,24.1,06.7,0001.1,0018.18,0007.03,0005.53
2022-12-19 03:08:00,,0820.6,5.01,0.00,22.2,21.0,00.0,31.1,24.0,06.7,0001.2,0017.93,0007.15,0005.59
2022-12-19 03:09:00,,0820.6,4.98,0.00,22.2,20.9,00.0,31.1,24.0,06.7,0001.2,0018.88,0007.23,0005.64
2022-12-19 03:10:00,,0820.6,4.97,0.00,22.2,20.9,00.0,31.1,24.0,06.7,0001.4,0018.98,0007.31,0005.67
2022-12-19 03:11:00,,0820.6,5.03,0.00,22.2,20.9,00.0,31.0,24.0,06.7,0001.8,0019.53,0007.42,0005.71
2022-12-19 03:12:00,,0820.6,5.01,0.00,22.2,20.8,00.0,31.0,24.0,06.7,0001.9,0020.64,0007.47,0005.75
2022-12-19 03:13:00,,0820.5,4.97,0.00,22.2,20.8,00.0,31.0,24.0,06.7,0001.9,0020.90,0007.45,0005.78
2022-12-19 03:14:00,,0820.6,5.03,0.00,22.2,20.7,00.0,31.0,24.0,06.7,0002.9,0020.42,0007.50,0005.80
2022-12-19 03:15:00,,0820.6,5.02,0.00,22.1,20.7,00.0,31.0,24.0,06.7,0003.3,0020.53,0007.56,0005.83
2022-12-19 03:16:00,,0820.6,4.98,0.00,22.1,20.6,00.0,31.0,23.9,06.7,0002.5,0020.06,0007.53,0005.85
2022-12-19 03:17:00,,0820.6,4.98,0.00,22.1,20.5,00.0,31.0,23.9,06.7,0002.2,0020.18,0007.55,0005.88
2022-12-19 03:18:00,,0820.6,5.02,0.00,22.1,20.5,00.0,31.0,23.9,06.7,0002.0,0020.40,0007.57,0005.90
2022-12-19 03:19:00,,0820.6,5.01,0.00,22.1,20.5,00.0,31.0,23.9,06.7,0002.2,0020.29,0007.52,0005.90
2022-12-19 03:20:00,,0820.6,4.95,0.00,22.1,20.5,00.0,31.0,23.9,06.8,0002.8,0019.63,0007.46,0005.93
2022-12-19 03:21:00,,0820.6,5.02,0.00,22.1,20.5,00.0,31.0,23.9,06.8,0003.1,0019.65,0007.49,0005.96
2022-12-19 03:22:00,,0820.6,5.02,0.00,22.1,20.5,00.0,31.0,23.9,06.7,0002.6,0018.89,0007.42,0005.98
2022-12-19 03:23:00,,0820.6,4.99,0.00,22.0,20.5,00.0,31.0,23.9,06.6,0002.2,0017.53,0007.39,0006.00
2022-12-19 03:24:00,,0820.7,4.96,0.00,22.0,20.5,00.0,31.0,23.8,06.6,0002.4,0016.67,0007.41,0006.01
2022-12-19 03:25:00,,0820.6,5.02,0.00,22.0,20.5,00.0,30.9,23.8,06.5,0002.5,0016.95,0007.34,0006.02
2022-12-19 03:26:00,,0820.6,5.03,0.00,22.0,20.6,00.0,30.9,23.8,06.5,0002.4,0016.86,0007.25,0006.00
2022-12-19 03:27:00,,0820.6,4.99,0.00,22.0,20.6,00.0,30.9,23.8,06.5,0003.2,0016.32,0007.23,0006.00
2022-12-19 03:28:00,,0820.6,4.98,0.00,22.0,20.6,00.0,30.9,23.9,06.5,0002.7,0016.31,0007.20,0006.00
2022-12-19 03:29:00,,0820.6,5.02,0.00,22.0,20.6,00.0,30.9,23.9,06.4,0003.6,0016.17,0007.13,0006.00
2022-12-19 03:30:00,,0820.6,5.01,0.00,22.0,20.6,00.0,30.9,23.9,06.4,0003.4,0017.40,0007.09,0005.98
2022-12-19 03:31:00,,0820.6,4.95,0.00,22.0,20.7,00.0,30.9,23.9,06.4,0003.3,0016.99,0007.07,0005.96
2022-12-19 03:32:00,,0820.6,5.02,0.00,22.1,20.8,00.0,30.9,23.9,06.4,0003.0,0017.55,0007.02,0005.93
2022-12-19 03:33:00,,0820.6,5.01,0.00,22.1,21.4,00.0,30.8,24.1,06.4,0002.9,0017.41,0007.00,0005.93
2022-12-19 03:34:00,,0820.6,4.96,0.00,22.2,22.0,00.0,30.9,24.2,06.4,0003.2,0017.36,0006.98,0005.93
2022-12-19 03:35:00,,0820.6,5.03,0.00,22.3,21.9,00.0,30.9,24.3,06.3,0003.5,0016.84,0006.95,0005.94
2022-12-19 03:36:00,,0820.6,5.00,0.00,22.3,21.6,00.0,31.0,24.2,06.3,0003.2,0016.56,0007.02,0005.94
2022-12-19 03:37:00,,0820.6,4.97,0.00,22.3,21.4,00.0,31.0,24.2,06.3,0003.2,0016.67,0007.01,0005.94
2022-12-19 03:38:00,,0820.6,5.03,0.00,22.3,21.3,00.0,31.0,24.2,06.3,0003.4,0017.20,0007.02,0005.94
2022-12-19 03:39:00,,0820.6,5.01,0.00,22.3,21.2,00.0,31.0,24.1,06.3,0004.0,0017.56,0007.02,0005.92
2022-12-19 03:40:00,,0820.7,4.96,0.00,22.3,21.1,00.0,31.0,24.1,06.2,0004.1,0017.07,0007.04,0005.91
2022-12-19 03:41:00,,0820.7,5.03,0.00,22.3,21.1,00.0,31.0,24.1,06.2,0002.0,0015.76,0007.05,0005.90
2022-12-19 03:42:00,,0820.6,5.01,0.00,22.3,21.0,00.0,31.0,24.1,06.2,0003.0,0015.79,0007.06,0005.89
2022-12-19 03:43:00,,0820.6,4.95,0.00,22.3,21.0,00.0,31.0,24.1,06.2,0000.0,0014.82,0007.02,0005.88
2022-12-19 03:44:00,,0820.6,5.02,0.00,22.3,21.0,00.0,31.0,24.1,06.2,0000.0,0015.13,0007.02,0005.86
2022-12-19 03:45:00,,0820.6,5.02,0.00,22.3,21.0,00.0,31.0,24.0,06.2,0000.0,0016.27,0006.96,0005.83
2022-12-19 03:46:00,,0820.6,4.96,0.00,22.3,20.9,00.0,31.0,24.1,06.2,0000.0,0016.38,0006.96,0005.81
2022-12-19 03:47:00,,0820.6,5.03,0.00,22.2,20.9,00.0,31.0,24.0,06.2,0000.0,0016.21,0006.89,0005.79
2022-12-19 03:48:00,,0820.6,5.03,0.00,22.2,20.9,00.0,31.0,24.0,06.2,0000.0,0016.00,0006.87,0005.78
2022-12-19 03:49:00,,0820.6,4.97,0.00,22.2,20.8,00.0,31.0,24.0,06.2,0000.0,0015.15,0006.79,0005.74
2022-12-19 03:50:00,,0820.6,5.00,0.00,22.2,20.8,00.0,31.0,24.0,06.2,0000.0,0013.88,0006.70,0005.70
2022-12-19 03:51:00,,0820.6,5.01,0.00,22.2,20.8,00.0,31.0,24.0,06.2,0000.0,0013.82,0006.64,0005.67
2022-12-19 03:52:00,,0820.6,5.02,0.00,22.2,20.8,00.0,31.0,24.0,06.2,0000.0,0013.77,0006.59,0005.65
2022-12-19 03:53:00,,0820.6,4.95,0.00,22.2,20.8,00.0,31.0,24.0,06.1,0000.0,0014.11,0006.55,0005.61
2022-12-19 03:54:00,,0820.6,5.03,0.00,22.2,20.8,00.0,31.0,23.9,06.1,0000.0,0014.14,0006.52,0005.58
2022-12-19 03:55:00,,0820.6,5.03,0.00,22.1,20.8,00.0,31.0,23.9,06.2,0000.0,0013.65,0006.46,0005.55
2022-12-19 03:56:00,,0820.6,4.98,0.00,22.1,20.7,00.0,31.0,23.9,06.2,0000.0,0012.36,0006.42,0005.54
2022-12-19 03:57:00,,0820.6,4.97,0.00,22.1,20.7,00.0,31.0,23.8,06.2,0000.0,0012.92,0006.41,0005.51
2022-12-19 03:58:00,,0820.6,5.03,0.00,22.1,21.0,00.0,31.0,24.0,06.2,0000.0,0013.28,0006.42,0005.49
2022-12-19 03:59:00,,0820.6,5.02,0.00,22.2,21.8,00.0,30.9,24.2,06.1,0000.0,0013.13,0006.36,0005.47
